GFSSGP_925_spd_000.txt.gz
Wind_Speed
1 2 1 4 4 5 4 6 3 3 2 2 7 5 7 4 6 5 4 21 10 29 27 24 20 19 20 20 19 17 15 15 13 11 9 8 9 10 8 7 8 8 6 7 6 4 4 5 4
1 1 3 2 4 2 5 4 6 6 2 2 2 2 1 7 3 5 3 22 15 30 29 25 22 20 19 19 19 18 17 16 15 15 14 14 11 10 10 9 9 9 7 6 6 3 2 1 1
1 3 3 4 3 4 5 5 5 2 1 2 2 1 2 4 3 4 8 22 20 31 28 25 25 22 19 18 18 18 18 16 16 15 13 11 11 10 9 9 10 9 8 6 4 1 1 2 3
1 5 4 3 6 7 7 6 3 2 2 4 1 5 4 6 4 5 11 24 23 30 28 26 25 23 21 20 20 21 19 20 16 14 13 13 12 11 10 9 9 9 8 5 3 2 1 0 1
5 3 2 2 5 6 6 6 4 3 2 2 4 5 5 3 10 6 12 25 24 27 26 26 25 24 20 20 21 21 19 17 16 13 14 14 12 11 9 9 9 8 7 5 5 6 6 4 3
4 3 3 3 5 6 6 5 3 3 2 1 2 2 6 4 8 9 14 24 24 26 26 25 25 24 23 21 22 22 22 19 17 16 15 14 12 11 10 10 9 9 9 9 9 8 7 6 5
5 3 3 3 5 7 4 4 3 3 1 6 2 2 5 4 9 12 17 22 23 24 25 26 26 25 24 22 23 23 22 20 19 18 16 14 13 13 11 11 12 11 11 10 8 7 5 4 5
5 4 1 4 2 6 3 2 2 5 5 2 5 5 7 1 9 15 18 22 24 25 25 26 27 27 26 25 24 23 23 22 21 20 18 17 17 15 14 15 13 13 12 9 7 5 4 3 4
3 3 3 5 5 5 2 1 2 1 3 3 7 6 5 3 12 17 20 22 25 28 29 29 29 28 27 27 27 26 25 25 23 22 22 22 18 18 16 17 15 14 12 9 6 4 3 3 4
4 3 7 6 4 5 3 4 5 2 5 5 6 8 8 8 17 20 22 26 31 34 35 34 33 32 30 29 29 29 28 27 26 25 24 21 19 18 18 19 16 14 11 8 6 5 5 4 4
5 6 5 6 8 5 4 4 4 5 8 11 9 8 7 9 17 20 24 29 41 41 38 39 37 35 33 32 32 32 31 30 28 28 25 23 21 21 21 20 18 15 12 9 8 7 6 4 4
3 8 6 4 4 2 5 6 6 8 19 8 14 8 5 9 12 22 25 34 38 37 41 41 41 38 37 34 35 34 34 33 32 30 27 26 25 23 22 20 18 15 12 10 9 7 5 4 5
5 5 6 7 4 7 6 14 8 9 20 9 9 9 12 10 15 25 32 34 31 38 40 42 42 43 41 38 37 37 37 36 34 32 30 28 27 25 23 22 19 16 14 12 9 7 5 3 4
2 4 6 5 6 7 8 19 5 13 7 13 6 13 12 11 17 18 27 36 37 40 43 43 45 47 46 45 43 42 41 39 36 34 33 31 29 27 26 24 21 19 16 13 10 8 6 4 3
3 7 8 6 6 7 6 10 11 20 3 13 14 11 11 13 15 24 36 35 42 44 42 45 46 46 50 50 48 46 44 41 38 36 34 33 31 29 28 26 24 21 18 15 13 9 7 4 2
3 1 5 2 4 4 8 10 22 7 7 13 14 11 10 14 13 29 34 38 36 36 42 43 44 47 49 52 52 51 48 44 42 39 37 35 33 31 30 28 25 22 19 16 14 11 9 5 1
3 6 8 10 10 6 8 10 14 6 6 10 13 14 12 19 18 29 38 40 37 39 39 42 44 47 48 49 51 51 50 47 45 42 40 37 35 34 32 30 26 24 22 20 16 14 10 6 2
9 6 6 7 7 6 6 17 14 15 13 18 17 19 20 21 26 30 26 30 31 35 37 39 42 44 45 44 44 45 46 47 45 43 41 38 37 35 34 31 28 27 24 22 19 14 10 6 2
3 6 12 8 8 4 20 23 18 16 13 25 22 18 20 20 22 30 27 25 26 29 32 37 39 41 41 42 42 38 47 49 46 46 43 41 40 38 36 34 32 30 28 24 21 17 13 7 3
6 11 18 14 15 5 14 21 18 19 20 21 23 23 17 17 18 20 14 14 20 28 32 34 39 40 44 43 41 28 35 41 48 49 46 44 42 39 38 37 36 33 31 27 25 22 16 8 6
4 7 17 14 6 5 10 13 7 9 8 13 19 21 9 14 20 21 7 11 18 25 29 34 39 41 40 38 34 28 26 23 38 42 45 46 44 42 41 39 38 36 34 33 30 26 19 13 8
15 11 13 10 6 7 5 15 6 8 10 9 15 8 12 12 9 10 10 8 18 27 27 29 31 35 38 41 41 40 32 25 37 41 49 49 47 46 43 41 40 38 36 33 30 26 21 17 14
10 5 7 3 4 5 1 3 1 4 6 11 9 8 7 8 8 11 11 16 22 16 19 25 28 31 34 40 43 44 35 31 28 35 42 46 47 45 43 42 40 39 37 35 31 28 25 22 20
2 2 4 4 2 5 9 8 20 4 4 2 8 14 10 9 11 12 10 14 20 13 10 18 25 30 32 36 39 39 33 31 29 35 38 43 44 45 44 43 42 41 40 37 34 30 27 25 20
3 4 3 3 1 9 3 3 16 10 16 8 10 9 7 9 9 11 11 11 19 10 4 11 19 25 29 33 36 38 38 40 40 41 39 41 43 48 50 48 47 45 42 39 36 33 30 28 25
8 9 6 7 5 12 3 7 18 7 8 11 6 7 6 9 8 10 10 7 15 12 4 10 17 20 26 32 36 37 37 35 36 38 39 41 44 50 50 49 47 44 42 40 37 34 31 29 25
4 6 3 3 5 3 12 14 15 18 7 4 3 6 8 10 9 9 10 10 13 12 10 11 15 20 24 29 33 36 38 39 38 38 38 38 40 44 46 48 49 47 45 43 41 38 35 31 28
7 2 2 1 4 8 7 14 12 22 26 7 9 10 13 9 9 10 14 18 26 21 18 15 15 18 19 24 31 35 38 40 42 40 41 41 41 41 42 44 49 49 47 44 43 41 38 35 32
2 4 4 2 5 12 18 13 10 22 21 9 11 12 15 18 18 18 17 25 28 30 32 27 22 22 23 24 26 29 33 35 37 42 43 43 41 41 42 41 46 50 50 48 46 44 41 39 36
5 12 7 10 10 10 11 11 12 13 15 20 19 16 17 17 18 16 13 20 25 27 30 32 34 34 34 35 30 31 34 35 36 42 45 44 44 42 42 42 43 46 51 53 51 49 46 44 42

GFSSGP_925_spd_003.txt.gz
Wind_Speed
3 3 3 4 3 3 3 5 2 3 2 1 5 4 4 1 5 3 2 16 12 30 29 27 26 23 20 18 16 15 13 12 9 8 7 6 7 6 5 5 8 7 7 4 4 4 2 1 4
2 2 4 2 3 1 4 3 4 4 0 2 2 2 2 6 3 6 3 19 17 31 30 28 26 24 22 20 19 15 14 13 12 10 8 9 6 6 6 6 7 6 6 6 5 3 2 2 0
2 3 3 3 2 3 4 4 3 2 3 3 2 2 2 4 2 3 3 21 18 31 30 28 25 23 22 22 20 17 16 15 14 13 13 10 8 8 7 6 6 7 7 6 5 2 1 1 3
1 5 3 3 4 6 5 3 3 6 1 2 1 5 4 6 3 3 4 19 19 30 28 26 25 24 21 20 21 19 18 18 17 15 14 12 9 7 6 6 7 8 8 8 5 4 5 3 1
5 3 3 2 4 5 5 5 2 2 3 2 2 3 4 3 7 5 6 18 19 29 28 26 24 24 22 22 21 22 21 22 19 16 13 13 11 10 9 9 9 9 7 5 6 7 5 4 4
4 3 3 3 4 5 6 6 2 2 2 1 2 1 5 5 6 8 9 17 20 26 28 26 25 25 23 21 22 24 24 22 21 17 15 15 13 12 11 11 11 10 8 7 7 5 4 5 5
6 4 3 3 5 6 4 2 3 3 2 5 2 2 4 5 6 7 11 16 21 23 26 27 27 26 25 23 23 24 24 23 22 17 17 17 15 13 13 13 12 12 12 11 10 7 6 5 5
4 4 2 4 3 6 3 2 3 4 5 2 4 5 5 2 3 8 12 17 21 24 26 27 28 28 29 27 26 26 26 25 24 24 22 21 18 16 15 15 14 13 13 11 10 8 6 6 5
3 3 2 5 5 5 2 2 3 1 3 4 6 5 6 5 5 10 13 18 23 26 28 28 29 30 30 29 28 28 27 28 26 27 25 24 21 20 19 18 16 14 13 11 9 7 5 5 5
4 4 8 5 5 5 3 4 3 2 5 6 6 9 17 10 10 15 18 21 28 31 34 33 32 31 31 30 29 29 29 30 30 29 28 26 23 21 20 20 19 17 14 11 9 7 5 5 5
4 6 5 5 8 4 4 4 3 3 7 10 9 7 6 10 15 19 23 28 37 37 34 37 36 33 33 32 31 31 32 32 32 31 29 27 25 23 24 24 22 19 16 12 9 8 7 6 5
3 8 6 4 4 1 4 3 4 8 19 9 10 7 4 8 11 20 23 32 35 33 38 38 39 37 36 34 34 34 35 35 35 33 31 29 27 26 27 26 23 20 16 14 12 10 8 7 5
4 5 5 5 5 7 6 13 7 13 16 13 9 8 13 10 17 25 32 31 31 37 39 40 41 42 41 38 37 37 38 38 37 35 33 31 30 29 29 27 24 21 18 15 13 12 10 8 6
3 4 7 4 7 6 7 18 5 8 9 13 7 16 11 11 18 19 25 34 35 37 41 42 43 44 45 44 43 42 41 41 39 38 36 34 33 31 30 29 26 23 20 17 15 13 11 9 7
2 6 8 6 4 7 7 9 11 18 2 13 19 12 13 11 15 23 31 30 35 38 37 41 43 44 48 49 48 46 46 44 42 41 38 37 35 33 32 31 28 25 22 20 18 15 12 9 7
2 1 4 4 6 3 8 14 18 9 6 12 13 15 9 17 14 26 31 34 33 33 36 37 39 44 48 52 53 52 50 49 47 45 42 40 38 36 35 33 30 27 24 22 20 18 14 11 8
2 5 7 9 9 5 8 9 9 5 5 12 15 19 22 22 23 27 30 30 33 35 35 36 39 43 47 49 48 50 53 52 51 48 46 43 40 38 37 35 32 29 27 25 23 20 16 13 9
8 5 5 6 7 3 7 15 16 13 17 23 22 20 19 16 22 30 25 28 29 30 32 34 37 40 41 41 40 42 49 51 53 53 51 46 43 41 39 36 34 32 30 27 25 23 19 15 11
4 5 6 8 9 4 23 19 15 15 13 24 23 21 13 14 18 12 17 20 23 23 28 32 34 37 38 40 38 37 46 47 52 54 54 49 47 44 42 40 37 35 34 32 29 25 21 17 15
6 8 15 7 10 3 12 21 22 20 20 20 21 17 9 11 17 11 14 19 20 21 22 27 34 36 41 42 40 27 32 34 43 50 53 50 50 47 45 43 41 40 37 34 33 30 23 13 18
3 6 10 9 7 6 8 7 4 6 6 6 8 7 9 11 12 12 14 22 18 19 22 23 29 34 35 37 34 28 19 23 33 41 49 52 51 49 47 45 44 43 40 39 38 34 28 19 18
7 10 10 5 5 3 6 11 5 7 9 5 6 3 7 8 8 7 8 20 27 22 15 17 22 26 29 33 32 37 30 21 28 33 41 51 52 51 50 48 46 44 42 41 40 37 32 24 19
10 2 2 2 2 4 2 2 6 3 7 6 5 4 6 6 3 18 14 25 31 28 20 12 11 20 25 32 34 32 27 30 24 34 36 43 51 51 51 49 47 45 45 43 41 39 36 29 24
5 4 6 4 2 4 8 7 2 4 4 3 6 9 8 17 14 16 17 21 29 36 28 20 7 11 18 24 30 33 31 25 26 30 35 41 46 50 49 48 47 46 46 46 44 42 39 35 28
3 4 3 3 1 7 1 1 6 7 13 6 9 10 10 11 13 18 20 22 29 32 34 30 21 12 9 15 21 26 28 29 31 29 27 30 35 44 52 49 48 48 48 48 45 43 42 39 36
7 8 6 7 5 8 3 7 13 8 6 5 11 8 16 19 18 17 19 27 31 35 39 38 30 22 16 12 17 21 26 28 30 30 31 34 39 46 50 53 52 51 49 46 43 43 43 41 38
4 6 3 2 2 1 9 11 15 14 8 15 17 18 17 16 16 18 21 29 32 35 35 36 36 33 30 23 19 21 25 28 32 30 29 32 34 37 43 51 55 54 52 49 48 49 47 44 40
5 0 1 2 3 11 8 14 13 15 11 13 16 15 13 12 14 15 17 23 27 28 30 32 33 31 31 31 25 23 25 27 31 32 31 34 35 35 37 42 50 52 52 51 51 50 49 46 43
0 3 3 3 4 11 13 8 3 7 8 9 9 8 9 11 11 10 12 17 21 25 30 32 33 34 36 36 32 27 23 27 31 33 32 34 36 36 38 39 44 50 53 52 51 50 51 50 48
5 7 4 4 6 5 11 8 10 9 10 6 3 6 9 12 12 10 13 14 17 22 24 27 30 32 37 38 37 35 32 26 26 30 33 33 36 39 39 40 42 46 49 55 56 52 52 53 51

GFSSGP_925_spd_006.txt.gz
Wind_Speed
4 4 4 3 4 3 3 1 2 3 2 1 2 3 5 6 4 6 0 7 6 20 24 29 27 25 22 20 17 16 14 11 9 9 8 8 6 6 6 5 7 8 9 6 4 4 3 2 2
3 3 1 1 4 4 2 0 2 2 2 2 4 4 5 7 4 5 2 7 8 20 22 24 28 26 22 21 19 16 14 13 11 10 11 9 9 7 7 6 6 7 5 3 6 4 3 2 1
1 3 3 2 2 3 3 1 2 2 4 4 3 3 4 3 2 2 3 9 11 18 20 20 26 25 24 22 20 18 15 14 14 12 10 9 9 6 7 8 8 7 6 7 4 3 2 2 3
1 2 3 4 7 8 6 8 8 10 1 3 4 7 3 5 2 3 2 13 13 18 18 20 26 25 23 22 21 19 16 16 16 15 13 13 11 10 6 6 8 9 9 7 5 4 4 4 3
2 1 3 3 5 5 8 8 6 5 3 3 2 3 4 2 5 5 3 12 13 18 19 19 24 23 23 23 22 21 19 19 19 18 16 12 12 12 9 9 10 11 9 7 8 7 4 2 2
2 2 3 5 4 5 7 5 4 4 2 1 4 5 4 2 3 5 7 10 12 17 20 20 25 24 23 21 20 21 22 22 23 21 18 14 14 13 10 10 11 11 9 8 7 5 4 4 4
2 2 3 5 7 5 2 1 3 3 2 4 1 5 4 5 3 5 7 10 12 16 20 21 22 26 25 24 22 22 23 24 23 21 15 15 15 13 12 12 11 11 11 10 9 8 6 4 3
1 2 2 4 3 5 2 2 1 5 6 1 2 4 5 2 2 4 6 9 13 17 20 21 21 22 23 23 26 24 24 24 24 22 18 18 19 16 14 15 12 11 11 11 10 9 7 4 3
1 4 5 4 4 2 2 4 3 3 8 5 7 9 12 4 5 5 7 10 15 19 22 22 22 22 23 23 24 27 26 26 26 24 23 24 16 15 15 14 15 14 13 12 11 9 6 4 3
4 4 5 4 5 7 6 5 7 6 14 17 12 16 17 9 9 12 14 16 20 23 26 25 25 25 24 23 23 24 24 25 24 23 24 21 18 16 16 16 18 17 15 13 12 10 7 6 5
4 7 7 8 12 8 8 9 4 10 17 14 16 18 13 11 15 17 20 22 23 23 22 28 26 26 26 25 24 23 25 25 25 25 24 23 20 20 19 15 17 16 17 12 11 10 8 8 6
6 12 10 6 4 4 7 6 11 14 25 23 22 19 17 16 16 19 22 22 22 22 25 25 28 27 27 26 27 26 26 26 26 27 27 27 25 22 20 19 19 17 17 15 14 13 11 9 7
9 10 10 11 9 10 12 21 17 21 22 24 21 16 17 17 21 21 22 22 21 24 24 25 26 30 29 29 27 28 28 29 28 26 31 31 26 27 24 22 20 19 20 19 17 15 13 11 8
3 7 11 8 14 11 10 24 8 12 10 16 17 18 17 15 19 19 16 21 21 22 24 25 29 31 30 32 31 31 30 30 29 29 33 36 32 29 26 25 25 24 23 20 18 16 14 11 9
3 11 15 15 10 8 8 14 16 20 7 15 21 18 17 18 19 20 23 22 19 24 26 27 30 32 35 36 36 35 34 32 33 32 35 39 38 33 30 27 26 26 25 22 20 18 15 12 10
5 4 10 7 4 3 8 20 21 14 8 16 20 23 24 25 25 26 25 23 24 24 24 26 31 34 35 37 36 34 31 32 31 30 32 39 40 36 31 28 28 27 26 24 21 19 16 11 9
5 11 14 16 4 3 10 14 16 17 18 26 24 24 21 21 23 22 21 21 24 23 22 22 26 30 33 35 32 32 31 32 32 30 32 39 41 40 35 30 28 30 27 24 22 20 16 13 10
15 13 11 12 14 11 17 20 21 24 22 25 25 23 18 18 16 21 21 21 22 21 17 18 19 23 24 24 27 27 29 31 31 34 35 36 41 40 36 33 32 33 29 25 24 21 16 13 12
10 14 18 23 20 16 20 19 18 24 22 24 22 16 14 13 14 16 18 20 19 14 12 13 15 17 20 23 24 27 29 28 30 32 32 33 38 42 40 34 32 33 33 33 28 23 21 14 14
13 14 21 16 15 3 14 19 23 18 15 14 14 13 10 11 14 20 26 26 27 25 20 12 10 13 17 18 21 22 22 25 26 26 27 31 34 40 43 42 40 39 34 30 31 28 19 11 21
13 14 17 16 13 13 11 13 5 9 10 5 4 5 8 13 18 20 26 31 31 30 28 19 11 8 11 14 14 15 10 14 17 21 22 24 28 34 46 43 41 43 40 38 40 37 30 19 20
13 10 15 11 6 10 8 11 8 7 9 3 8 15 13 16 18 18 20 26 30 30 27 27 19 7 5 8 10 14 15 15 15 18 21 23 26 29 35 42 41 42 44 35 40 39 31 24 20
5 2 2 1 6 7 3 7 1 2 2 7 12 14 15 17 18 19 21 26 27 33 38 31 26 19 10 3 7 10 14 13 12 10 14 19 21 27 29 34 37 41 44 36 39 40 35 31 22
4 1 1 0 3 8 4 7 3 3 3 6 11 13 13 15 16 18 24 28 36 36 33 33 31 28 21 12 7 9 12 13 13 12 12 15 18 22 28 33 35 37 41 44 46 45 44 40 28
5 3 7 6 6 12 4 6 8 7 8 7 9 11 14 15 16 18 22 27 30 34 33 30 32 32 27 20 15 12 11 13 16 15 13 14 15 19 26 30 34 38 42 39 42 45 45 44 35
9 7 6 8 15 17 6 10 9 11 13 13 13 13 14 15 15 18 19 23 23 24 27 28 29 29 28 28 23 16 13 13 15 15 15 15 16 18 21 28 31 32 35 37 38 37 38 40 42
6 7 3 7 6 8 16 23 17 9 11 10 11 11 13 14 14 15 18 20 22 22 23 24 25 24 25 25 25 27 20 16 15 15 17 18 15 16 18 22 30 34 36 41 41 39 41 42 43
8 3 8 5 8 20 17 20 13 7 5 7 8 9 9 10 11 11 13 16 17 18 20 20 20 23 24 23 24 25 25 23 18 16 16 20 22 21 21 20 24 29 34 39 41 37 39 40 40
10 8 6 5 6 7 10 13 7 3 4 5 5 7 9 11 11 11 13 13 15 16 18 22 24 24 26 26 25 23 25 26 25 23 19 16 17 18 21 25 25 28 32 34 37 39 40 43 37
4 12 14 10 11 13 14 18 2 3 6 6 4 2 3 6 10 10 13 15 16 18 20 19 19 21 23 23 22 23 24 25 27 26 26 25 22 20 21 22 24 28 33 33 36 38 39 41 41

GFSSGP_925_spd_009.txt.gz
Wind_Speed
4 5 6 7 5 3 3 3 4 4 2 5 4 6 10 10 8 4 2 4 2 13 18 27 26 23 23 20 18 16 14 12 11 10 9 8 8 7 6 6 8 9 8 7 4 2 2 2 2
3 5 6 4 4 5 7 4 2 6 7 6 5 6 7 4 3 2 2 4 5 14 17 22 26 24 22 21 19 17 15 13 11 11 11 11 9 8 6 7 7 8 6 4 3 3 2 1 1
3 4 4 3 3 5 5 3 4 5 5 5 5 2 7 5 1 3 2 4 7 14 18 19 24 24 23 21 19 18 15 14 12 11 11 9 9 8 7 9 6 5 4 3 4 2 2 4 5
4 5 4 5 5 6 4 8 9 8 3 1 3 8 3 4 2 2 3 7 8 13 16 19 23 25 22 21 20 18 16 15 14 14 12 12 9 7 5 5 7 9 10 8 4 3 4 4 4
4 3 4 4 6 3 6 7 6 7 4 2 2 4 5 3 2 2 1 7 8 13 16 17 23 28 25 23 22 20 18 16 16 17 17 13 11 9 7 6 7 8 10 7 5 5 4 2 1
3 3 5 5 5 4 3 3 4 4 3 1 4 8 5 6 3 2 4 7 9 13 16 17 21 27 27 26 25 23 21 18 19 21 18 16 11 10 9 8 9 10 9 6 6 5 4 4 4
4 4 8 9 9 5 0 1 3 6 6 7 2 8 5 7 3 2 4 7 10 12 15 17 16 23 24 24 24 25 24 23 24 24 21 20 14 13 12 10 10 10 9 9 9 7 6 5 4
4 3 6 4 7 9 3 2 3 7 13 2 4 5 5 8 2 2 4 8 10 13 16 18 18 20 21 20 22 23 24 26 27 25 24 20 16 15 15 14 13 10 10 9 10 9 7 5 4
3 5 7 9 7 4 5 6 2 5 11 14 8 12 15 4 5 6 7 10 12 15 17 18 19 20 21 21 22 24 23 25 27 26 25 23 15 15 15 14 14 14 13 12 12 10 8 5 3
5 7 9 5 9 10 12 11 11 11 14 17 13 15 13 14 13 15 15 15 16 17 19 20 21 22 21 22 23 25 27 27 27 25 22 21 17 16 16 16 18 17 17 14 13 12 8 6 3
5 9 12 11 13 13 14 15 16 13 17 16 16 16 16 17 18 17 19 20 19 17 19 21 23 23 24 24 23 23 26 30 29 26 24 23 20 19 20 17 20 18 19 14 14 13 10 8 6
9 13 14 16 11 7 15 17 15 14 21 21 21 20 19 17 16 18 19 18 17 18 21 24 25 26 27 26 26 25 25 26 28 29 27 24 23 21 22 20 20 19 19 15 14 14 12 10 9
13 14 15 14 14 14 16 21 18 21 22 22 19 17 17 17 18 19 18 18 17 21 22 24 27 29 29 30 27 27 27 27 29 27 29 27 25 24 22 21 21 20 19 17 17 14 13 11 9
10 12 16 17 15 14 17 21 16 21 17 18 16 19 18 18 17 19 16 19 20 21 20 22 26 29 27 30 30 28 27 26 27 27 29 32 28 26 26 24 23 21 20 17 16 15 15 13 11
8 13 16 19 18 9 6 16 12 13 11 14 18 20 20 20 24 22 24 23 21 19 18 19 23 27 30 32 30 29 28 28 28 28 28 31 29 27 26 25 24 23 22 20 18 17 14 12 11
8 10 10 7 1 4 6 20 14 9 14 23 24 21 18 19 18 18 16 17 17 17 16 17 19 24 28 30 29 28 27 27 27 28 28 30 32 28 28 27 27 26 26 26 22 21 17 14 12
12 12 15 12 9 4 10 13 17 22 21 24 22 17 15 15 12 19 18 18 16 16 15 13 14 19 22 24 25 24 24 25 24 24 25 27 31 31 29 27 27 29 30 28 26 23 21 18 14
15 18 18 20 21 14 18 18 19 19 21 23 20 15 9 9 15 21 23 23 22 21 16 12 8 11 15 17 19 20 21 22 22 23 23 23 26 27 26 24 25 28 27 25 25 25 22 20 18
20 19 20 21 19 17 17 16 17 20 20 16 11 8 9 12 16 24 26 27 28 29 26 20 11 5 8 11 14 16 18 18 20 21 21 22 23 25 27 23 24 30 28 27 28 24 23 18 19
15 17 19 17 9 1 13 18 21 17 19 7 8 9 12 12 15 20 26 28 29 27 27 24 18 11 3 6 8 10 10 14 16 17 18 20 22 25 28 27 26 30 27 26 28 26 22 15 25
16 16 18 17 14 11 11 15 13 9 14 9 12 14 14 14 15 17 24 29 30 32 31 27 22 15 10 5 4 4 5 4 6 11 15 15 18 21 25 27 27 31 33 31 32 32 30 20 24
16 11 11 11 6 10 4 11 12 8 8 14 12 12 13 14 14 14 19 27 30 29 28 28 27 22 17 10 5 5 7 9 8 9 11 13 17 22 24 28 28 30 36 30 34 34 31 25 20
6 1 4 5 10 12 11 7 8 5 8 13 10 10 12 12 13 14 17 19 21 24 24 25 26 24 22 18 13 9 9 9 9 6 9 11 14 19 23 25 28 28 32 35 36 37 35 28 24
2 6 10 7 5 9 14 12 7 1 6 11 9 9 9 10 12 13 16 19 21 20 21 22 22 25 29 24 19 16 12 12 12 12 12 10 11 14 19 24 25 27 27 31 33 37 39 37 30
7 8 8 8 9 13 6 6 13 4 8 8 9 8 7 9 10 11 12 16 16 18 18 20 25 28 28 26 25 21 17 13 13 13 12 12 12 11 13 18 24 27 28 28 29 33 36 39 34
8 8 8 11 13 14 3 8 8 13 11 11 11 9 6 7 9 11 12 14 15 18 21 22 26 25 23 21 22 23 24 19 16 15 15 14 14 13 12 14 20 24 26 27 28 30 34 35 36
3 6 6 6 9 9 13 20 19 14 11 8 9 8 7 7 9 10 11 13 15 19 21 23 21 20 21 21 20 20 21 22 22 20 17 15 15 15 14 14 16 22 25 27 29 30 31 34 37
7 1 5 3 4 7 13 20 15 13 8 7 5 5 7 8 9 9 11 13 14 15 16 17 18 19 19 19 19 19 19 19 19 19 21 21 18 16 14 15 15 19 22 26 28 29 29 33 34
7 6 11 12 10 13 17 14 11 6 2 6 5 3 4 5 7 6 8 10 10 11 12 13 14 15 16 18 17 18 19 19 20 22 22 27 26 23 17 17 16 17 21 22 27 29 29 32 32
10 15 16 13 8 11 12 13 13 2 5 4 5 5 1 3 5 5 5 6 7 9 11 11 12 13 14 15 15 17 17 21 22 27 29 29 27 29 27 22 16 15 20 22 26 27 30 32 31

GFSSGP_925_spd_015.txt.gz
Wind_Speed
5 6 10 4 4 5 3 3 4 5 3 0 0 2 3 3 3 3 7 14 6 19 22 30 27 25 23 20 18 16 15 14 12 11 10 9 8 7 7 8 10 8 8 6 6 4 2 2 4
5 7 1 2 4 4 4 3 4 4 4 1 0 0 1 2 2 5 7 9 10 20 20 28 29 27 23 21 19 17 16 14 13 12 11 10 10 8 8 8 10 11 7 7 4 1 1 2 3
6 5 3 3 3 3 2 1 2 3 3 2 2 1 1 3 4 10 5 8 12 17 18 22 28 26 25 23 20 18 17 16 14 14 13 13 12 11 10 11 11 11 8 5 3 2 2 2 1
5 5 4 4 2 1 3 3 3 2 2 2 2 4 3 2 4 6 7 7 15 15 16 16 27 26 23 23 22 21 19 17 16 15 14 13 12 11 8 11 8 7 7 6 4 4 4 3 3
2 3 3 2 4 3 3 3 2 2 1 4 4 3 5 3 9 8 7 8 14 15 15 16 23 27 25 24 22 21 19 19 18 18 15 15 15 11 9 10 9 9 7 6 6 6 5 3 2
4 3 4 1 4 1 2 3 2 4 3 1 2 2 2 6 6 7 6 7 11 15 18 16 18 24 26 25 25 23 21 19 17 17 17 17 17 17 10 9 10 10 9 7 8 6 5 3 5
2 3 3 3 4 3 2 1 3 1 5 2 0 2 2 2 7 7 6 6 9 13 16 19 20 22 23 25 25 24 23 21 19 18 19 19 19 19 13 9 11 10 10 10 9 7 6 7 8
3 3 2 3 3 2 3 1 3 1 5 1 1 2 3 6 12 9 7 9 10 12 18 17 18 21 24 27 25 24 24 23 21 20 20 21 19 19 15 11 12 11 11 11 10 8 8 8 7
3 4 2 3 5 2 4 4 4 4 3 2 5 5 6 5 10 7 7 8 11 14 16 19 20 22 22 28 29 28 26 25 23 23 22 25 23 22 18 12 13 13 12 11 10 9 10 9 8
4 3 5 1 1 3 5 2 3 4 8 8 5 5 8 4 9 11 10 13 14 17 20 22 21 23 22 22 32 31 30 29 27 26 25 26 26 24 19 15 14 16 15 14 12 12 11 10 10
4 5 2 5 4 1 2 7 4 5 3 10 9 6 10 3 7 11 14 18 19 18 21 23 23 23 24 23 25 28 29 29 27 26 26 27 26 23 21 18 17 18 19 18 16 15 13 12 10
3 7 4 5 5 4 3 3 9 5 10 10 10 9 5 8 9 14 16 20 16 15 18 22 24 23 26 26 26 25 27 28 30 28 28 29 28 25 23 21 20 22 22 21 19 15 14 12 10
4 3 4 6 9 7 5 6 5 12 14 11 12 10 8 7 10 21 23 19 14 12 12 13 21 26 26 28 28 26 27 28 30 31 29 30 31 29 26 24 23 22 23 23 21 18 17 15 14
2 3 6 7 12 5 6 4 2 10 7 9 7 8 9 15 16 21 28 28 25 22 23 9 14 22 27 28 28 29 25 24 26 29 33 31 31 30 29 29 27 25 25 24 23 22 20 18 16
2 4 8 10 5 6 6 4 6 11 8 8 3 8 13 13 20 21 21 22 22 21 21 20 7 13 25 28 26 27 26 23 22 24 26 32 32 29 30 32 29 27 26 26 25 23 21 20 19
3 1 2 6 4 3 3 7 8 11 7 17 7 8 10 13 18 22 24 26 25 21 21 18 16 3 15 24 24 23 24 21 23 20 23 26 30 30 31 32 29 27 26 27 28 27 25 23 22
2 3 6 7 2 3 3 6 10 9 8 9 8 11 10 11 18 24 29 30 28 26 25 23 20 18 7 8 12 14 15 19 15 15 19 21 24 26 28 29 26 25 27 28 28 27 26 26 23
5 4 4 4 4 3 4 9 8 12 13 4 10 9 11 13 15 22 29 30 31 29 26 26 27 21 15 11 7 5 3 8 11 13 14 16 17 21 23 23 24 26 28 29 29 28 26 26 23
2 3 4 5 9 2 8 6 9 10 12 8 8 10 11 12 14 23 26 28 29 32 31 30 28 26 24 21 15 13 12 9 1 1 7 8 11 15 21 23 23 27 31 32 31 28 27 24 21
6 5 6 5 5 1 7 9 9 13 6 8 13 9 10 9 11 17 21 27 32 31 31 30 29 28 26 24 19 15 11 13 14 11 6 4 3 11 16 21 23 25 28 30 32 32 30 28 27
4 5 4 8 5 3 3 7 8 3 12 13 9 11 10 11 11 8 16 24 28 30 30 30 29 27 24 21 17 15 14 14 13 15 12 9 7 6 9 18 21 24 26 30 32 34 33 32 33
4 5 5 5 2 4 3 6 6 4 7 5 7 8 8 10 9 9 12 19 23 24 26 29 32 32 29 25 24 23 23 20 18 15 12 10 9 10 12 8 17 20 22 27 31 32 35 31 31
8 3 2 2 2 3 3 1 7 9 4 6 6 7 8 8 8 8 12 17 18 21 22 25 28 30 30 31 29 27 25 20 17 16 13 13 11 7 8 11 12 13 19 21 26 30 33 37 33
5 2 3 4 3 2 7 7 5 5 8 6 6 8 9 7 7 10 15 16 17 16 20 22 26 26 27 28 28 28 29 27 27 25 23 20 15 12 10 9 9 11 15 20 21 25 30 35 40
3 5 2 1 0 6 5 2 8 4 5 9 12 8 8 6 7 7 10 14 16 18 19 21 24 26 25 25 26 26 25 24 25 25 25 26 25 23 20 15 13 11 12 15 19 21 24 29 35
5 6 4 5 3 4 5 5 4 4 11 14 9 8 7 6 6 6 9 12 13 15 16 17 20 23 21 23 23 24 25 24 24 24 23 24 24 24 24 23 18 15 14 14 16 19 22 24 29
4 4 2 3 1 2 4 5 2 5 7 9 9 7 6 6 6 6 9 10 9 9 10 12 16 16 16 18 20 21 20 21 21 20 20 20 21 22 22 24 24 23 21 18 16 17 20 23 26
2 5 2 2 2 4 5 5 5 5 7 6 8 8 6 5 6 6 8 9 8 7 8 9 12 14 14 15 16 17 17 16 16 17 21 20 20 22 23 24 24 23 23 22 20 20 20 22 24
2 2 3 3 4 4 2 5 3 6 8 9 7 7 8 7 6 6 8 11 11 9 8 8 9 11 12 13 14 15 16 18 18 20 22 25 25 27 28 26 26 26 24 23 23 23 23 21 22
5 5 4 3 5 3 4 8 4 8 7 9 8 9 10 9 8 8 11 10 11 10 8 7 6 5 7 9 11 14 15 19 20 23 24 26 28 28 28 29 29 29 28 27 27 26 25 25 24

GFSSGP_925_spd_021.txt.gz
Wind_Speed
9 8 5 4 4 5 2 0 1 2 2 1 1 2 2 3 3 3 3 14 2 14 24 26 24 23 21 18 16 15 13 10 9 8 8 7 6 6 5 6 9 7 4 6 5 4 4 4 4
8 5 3 2 5 4 4 4 1 1 2 2 2 2 2 2 2 2 2 12 4 12 20 27 26 24 22 19 17 16 13 11 9 8 8 7 6 5 6 7 6 4 5 2 3 3 2 2 2
4 4 4 4 3 3 4 3 2 4 3 2 2 1 1 2 2 2 3 10 7 12 17 25 26 25 23 20 19 16 14 12 10 9 8 7 6 5 4 6 7 7 3 2 1 2 1 1 2
3 6 4 5 2 2 2 2 3 2 3 4 2 2 3 2 2 2 4 7 8 11 17 21 26 25 24 22 20 18 16 14 11 9 8 8 8 6 5 6 7 7 4 4 3 4 4 4 4
6 3 4 3 2 3 2 2 3 3 1 2 2 4 5 3 1 3 4 5 7 12 16 20 25 27 26 24 22 20 17 16 14 12 12 12 10 8 7 7 6 4 5 3 5 6 6 5 4
4 3 5 1 3 4 3 1 1 2 1 3 2 4 4 5 1 1 3 3 5 9 14 17 22 26 27 26 23 21 19 17 15 13 14 12 12 11 9 5 8 6 6 5 4 8 7 5 3
5 4 3 1 3 4 3 4 2 2 1 2 1 3 4 5 5 5 4 3 5 8 12 15 17 22 25 26 24 23 20 18 16 16 16 14 13 15 13 8 6 9 8 7 6 8 7 5 3
4 4 2 1 1 1 4 5 1 1 2 5 2 2 4 3 5 6 6 6 8 10 13 15 16 19 22 24 24 23 22 20 18 18 17 16 14 18 15 12 7 7 9 8 8 9 7 6 5
3 4 1 2 2 2 4 5 2 3 1 4 3 1 4 9 4 6 6 7 9 12 14 16 18 20 21 22 24 23 22 22 20 18 18 17 16 19 18 15 11 9 9 9 10 10 8 7 7
4 3 6 3 3 2 3 1 3 5 7 2 3 7 10 13 7 6 9 14 15 14 14 16 19 20 21 22 23 23 23 22 20 20 19 18 17 19 19 17 13 11 10 10 11 10 10 8 8
2 4 5 3 4 3 2 2 3 1 6 4 4 9 10 12 16 14 13 13 12 10 9 12 18 22 22 23 24 24 25 24 23 23 22 19 18 20 21 18 16 13 12 11 13 13 12 9 9
0 4 3 2 3 2 3 2 5 5 8 6 4 3 5 8 11 12 12 13 14 11 9 8 11 22 25 24 23 23 23 24 26 24 21 20 19 20 20 19 17 14 14 14 15 15 14 12 11
2 3 3 6 7 5 2 6 5 9 7 5 9 11 9 9 11 12 12 13 14 14 13 10 8 12 23 25 23 21 19 18 19 22 24 22 21 21 21 21 19 16 15 15 17 17 16 14 14
2 3 6 7 7 4 4 2 2 3 8 8 9 9 8 10 15 16 21 19 18 15 15 13 10 8 16 23 22 20 17 15 15 15 15 19 22 21 20 22 20 19 18 17 16 18 17 16 16
1 5 7 7 2 5 6 0 7 5 8 7 8 7 8 10 16 17 16 17 19 18 17 15 12 9 5 14 17 17 16 15 12 12 12 13 16 19 19 19 22 21 20 18 17 18 18 18 18
3 3 4 3 3 1 4 8 6 2 8 7 6 6 7 8 13 16 16 17 18 19 20 18 17 13 8 4 8 8 9 9 9 9 9 11 15 18 18 18 20 19 19 19 20 18 19 19 20
4 3 4 8 3 2 3 6 7 6 7 6 6 6 6 7 14 20 19 18 18 19 20 21 22 23 19 15 12 11 10 7 4 1 2 5 8 11 15 17 17 18 21 20 20 18 18 20 20
5 4 4 6 2 2 3 8 8 6 3 7 7 6 6 7 10 19 21 21 21 21 22 22 22 20 23 24 22 21 20 21 17 15 11 7 5 6 6 9 11 12 13 15 16 16 18 20 19
4 4 5 4 4 1 7 6 12 4 4 6 7 7 7 7 9 19 23 24 25 27 28 28 26 24 18 16 19 22 23 23 22 19 16 14 9 7 6 7 8 8 8 11 13 15 18 19 18
2 1 7 5 4 6 7 8 10 4 2 3 9 6 7 6 7 15 22 27 29 28 29 30 31 28 25 24 18 18 22 27 25 23 21 18 16 14 11 9 8 8 9 10 12 13 15 18 18
4 7 3 6 4 3 4 6 7 3 5 9 7 7 6 7 6 7 16 23 25 29 31 32 31 31 28 22 18 18 18 22 25 26 24 23 21 20 17 14 13 11 9 9 10 12 14 18 17
5 8 8 7 3 5 3 5 5 5 4 4 6 6 6 6 6 7 12 19 22 23 26 29 32 32 30 27 29 31 31 28 25 25 24 26 25 23 20 18 16 15 14 13 12 11 11 13 19
6 2 5 2 2 2 3 2 6 5 3 5 5 6 6 5 6 6 12 16 18 20 23 27 28 29 29 29 29 31 32 29 27 27 27 28 29 30 29 26 22 20 18 15 14 14 13 12 13
4 4 6 4 2 1 9 8 3 4 2 5 5 6 7 7 7 10 11 13 16 18 21 24 27 28 26 27 27 27 29 27 27 27 27 27 27 28 28 27 27 27 27 26 22 16 13 14 14
3 6 2 3 2 6 1 2 7 1 2 6 14 10 7 5 5 6 10 11 13 15 19 21 24 25 24 25 25 25 25 25 26 24 23 23 24 25 25 24 25 25 24 25 24 24 22 18 16
7 8 6 7 3 4 1 6 5 1 2 6 13 11 7 7 7 6 10 11 11 13 15 17 19 21 20 20 21 21 21 21 20 19 17 17 19 20 19 20 20 22 22 22 22 22 22 22 21
5 4 4 5 3 2 4 4 0 2 5 6 7 7 9 8 7 7 13 12 13 13 12 13 15 16 15 16 15 17 16 15 15 14 14 16 17 17 18 19 20 21 22 24 24 25 24 23 23
3 5 3 2 2 4 4 6 5 7 7 7 8 10 7 7 9 8 14 15 13 12 12 11 11 13 13 12 12 13 13 12 11 11 13 15 15 16 19 21 23 24 25 26 26 27 28 28 29
2 2 3 3 4 5 2 7 4 7 9 13 12 9 9 10 10 7 14 15 14 13 12 11 11 11 11 10 10 9 9 10 11 13 14 15 17 19 21 23 25 28 30 31 32 32 32 33 32
2 6 7 6 7 3 2 12 3 3 8 9 9 9 8 8 8 9 17 19 19 17 15 14 13 11 10 8 6 4 4 7 10 13 15 17 19 20 23 25 28 30 31 33 33 34 35 33 34

GFSSGP_925_spd_024.txt.gz
Wind_Speed
7 6 4 5 4 5 1 1 1 3 2 1 1 2 2 2 3 2 4 12 2 13 23 24 22 20 18 15 13 11 9 8 6 6 6 5 6 6 6 5 8 5 5 8 7 7 6 5 5
7 4 4 3 5 4 4 4 1 1 1 2 2 2 4 1 1 6 2 9 0 12 20 24 22 21 19 16 14 11 9 7 6 5 4 4 3 3 4 6 3 2 6 5 5 6 5 4 4
4 5 4 4 4 4 3 3 2 3 2 2 2 2 3 2 2 2 4 6 3 9 17 22 22 21 19 16 14 14 12 9 7 6 5 4 3 3 3 4 3 6 4 2 4 4 4 4 4
3 6 4 5 2 1 1 2 3 3 3 4 0 2 4 1 1 3 2 2 3 5 13 18 22 21 20 18 16 14 13 10 8 7 6 5 5 3 3 3 3 1 1 5 4 5 5 6 6
6 3 4 4 3 3 3 2 1 2 1 2 2 2 4 2 2 2 2 1 0 3 10 13 20 22 20 18 17 16 14 12 10 8 7 8 8 4 3 3 4 2 4 5 4 6 6 6 6
4 3 5 2 2 3 3 2 1 1 1 3 2 2 3 4 1 1 2 1 1 3 8 12 17 21 20 19 19 18 16 13 11 10 9 11 8 6 5 2 5 5 3 3 4 5 7 6 5
6 4 4 4 1 1 1 5 2 1 3 2 1 3 3 5 5 2 1 1 2 2 5 9 13 19 21 22 21 20 17 15 13 12 11 11 9 8 7 4 4 4 5 5 5 5 8 7 3
5 4 3 1 1 1 2 3 2 2 1 5 1 2 3 4 9 1 0 2 3 3 5 8 11 14 19 21 21 21 19 17 15 13 12 12 10 11 11 8 6 4 4 6 4 5 8 6 3
3 4 2 4 6 2 1 3 1 1 1 4 3 0 7 13 7 3 3 4 4 4 5 8 11 13 16 18 20 20 19 18 15 15 14 13 13 11 13 11 8 6 5 6 6 7 8 6 4
4 3 6 3 2 2 2 1 4 4 5 2 4 5 16 14 14 14 14 14 14 12 6 8 11 14 16 18 17 19 20 19 18 17 15 14 14 12 14 13 12 8 6 6 7 8 10 7 5
2 3 3 3 4 1 1 1 1 2 3 2 5 6 12 17 19 18 16 16 16 14 11 8 10 15 18 19 19 18 18 18 18 17 17 16 15 15 14 14 13 11 10 8 10 12 12 10 7
1 3 4 3 0 2 2 0 2 4 2 4 7 5 5 9 12 15 15 16 18 16 15 12 10 11 18 20 19 18 17 17 17 18 18 18 17 15 14 14 14 12 10 10 12 14 14 12 10
2 2 1 4 5 6 2 4 4 7 4 9 10 11 9 9 13 13 15 15 18 18 17 15 13 11 10 20 20 17 14 12 12 14 18 17 16 15 15 14 15 14 13 12 12 14 14 13 12
0 3 7 7 3 3 4 1 2 2 6 9 9 8 7 11 15 16 21 20 20 19 20 18 14 11 9 12 17 14 10 7 7 8 10 13 16 17 16 16 14 16 15 13 14 14 12 13 13
1 4 7 5 1 4 6 1 5 4 5 7 6 7 8 11 16 16 16 17 16 15 16 18 17 13 7 4 6 7 5 4 4 5 5 7 9 12 12 13 14 14 14 15 16 15 12 12 15
4 4 4 3 3 0 3 7 3 7 7 5 6 7 7 10 16 20 18 15 16 18 19 19 19 18 16 13 12 10 8 7 8 8 7 7 4 7 7 10 11 12 14 14 14 15 14 13 13
5 3 4 8 3 2 3 7 2 4 6 6 6 6 6 6 14 18 16 16 16 17 17 20 23 24 24 24 24 22 22 20 19 16 16 16 14 11 6 6 7 7 8 10 12 12 11 11 11
6 4 4 6 1 1 1 8 9 6 5 7 7 6 5 6 8 14 16 16 17 18 19 20 21 26 28 28 27 27 28 27 25 23 21 17 16 15 14 14 13 12 9 7 5 6 8 11 12
5 5 6 3 3 2 6 6 12 5 6 7 6 6 6 6 6 15 18 18 19 20 21 22 22 20 21 24 26 27 29 28 27 25 23 24 22 20 18 17 16 16 14 12 9 8 9 10 12
3 4 6 5 3 4 7 8 11 2 2 3 8 7 6 4 5 13 19 21 23 22 24 25 25 25 24 26 26 26 28 30 27 25 24 22 21 20 20 20 20 17 14 15 14 12 9 7 12
5 8 4 7 3 3 2 6 8 3 3 6 6 5 5 7 7 5 13 18 21 24 23 26 27 25 24 23 25 25 26 25 27 28 28 27 25 23 22 21 20 18 17 19 18 17 14 11 9
6 8 7 5 3 4 1 5 5 4 4 4 7 7 7 6 4 6 10 15 18 20 22 25 27 29 29 27 26 28 31 31 28 28 27 28 28 28 27 26 25 24 22 20 19 16 15 13 14
7 5 6 4 3 1 3 2 7 6 6 7 6 5 4 3 3 5 9 13 14 18 20 23 26 28 27 28 28 30 33 30 26 25 26 26 26 26 26 26 26 28 27 26 24 22 20 18 15
6 5 6 4 3 2 9 8 4 5 4 4 5 8 9 7 6 4 8 11 14 16 19 21 24 26 25 26 27 28 28 26 25 23 24 23 24 24 24 23 24 23 23 24 22 21 21 21 20
4 5 1 3 2 6 1 2 5 2 2 1 11 10 8 7 7 5 7 9 12 14 16 18 21 23 23 24 25 24 24 23 22 21 20 20 20 22 22 21 21 21 21 20 20 20 19 20 18
7 7 5 6 3 4 2 6 4 2 4 4 7 9 8 7 7 8 11 11 11 12 13 15 17 20 19 20 21 20 19 20 20 19 18 18 18 17 17 17 18 19 18 19 19 20 20 19 19
5 5 4 4 2 2 4 4 3 1 3 4 8 10 9 8 8 8 13 13 13 12 12 13 15 16 16 17 17 17 16 16 16 15 14 15 14 15 15 16 16 17 19 21 22 23 23 22 23
4 6 3 2 2 5 4 4 5 6 7 6 8 10 9 8 8 7 13 14 14 14 13 12 12 14 14 14 13 13 12 12 12 11 11 11 10 11 13 15 17 19 21 23 24 27 28 29 29
3 2 3 3 4 5 3 5 5 6 7 11 11 10 10 9 9 7 16 20 18 16 14 13 13 13 13 11 11 10 9 8 8 8 8 9 10 11 13 16 19 22 24 25 26 27 28 28 30
3 7 7 6 7 3 2 12 1 3 9 8 8 8 8 8 8 10 19 20 19 20 18 17 15 14 13 12 11 9 7 5 3 4 7 9 11 13 16 20 24 26 28 29 30 30 29 30 32

GFSSGP_925_spd_027.txt.gz
Wind_Speed
6 5 2 4 4 4 1 0 1 2 1 2 1 2 3 2 3 2 2 9 3 10 22 21 19 16 14 12 11 10 9 8 7 7 8 8 8 8 6 7 8 7 8 11 10 9 8 8 8
5 3 4 2 4 3 2 3 2 1 2 2 1 1 3 1 0 1 3 8 3 11 20 20 19 17 14 12 10 9 7 7 7 6 6 6 6 6 8 8 5 6 9 7 7 8 7 6 6
2 4 3 4 3 3 3 3 2 2 2 1 2 2 2 2 2 2 2 8 3 10 16 20 19 17 15 12 11 9 8 6 4 4 4 4 5 5 6 5 4 7 6 5 6 6 6 6 6
1 5 4 4 3 2 1 1 2 2 3 3 1 3 2 2 2 3 4 6 3 8 12 19 19 18 16 13 11 11 10 8 5 4 3 3 3 4 4 4 6 2 5 7 6 6 6 7 7
6 3 4 4 0 1 3 3 2 1 1 2 2 1 1 4 4 5 5 5 3 4 10 15 18 19 17 17 14 11 11 9 7 5 4 4 4 2 2 3 4 2 2 5 5 6 6 7 7
4 3 4 2 2 2 3 1 2 1 0 1 2 2 1 7 5 5 4 5 5 4 6 9 15 17 17 16 14 13 12 10 8 6 6 7 5 2 2 2 2 2 2 1 4 5 6 6 5
6 4 4 4 3 1 2 2 3 2 2 2 2 2 2 9 11 2 3 6 7 5 3 6 10 15 17 16 16 15 14 12 11 9 8 8 6 4 2 1 2 1 3 4 7 4 6 6 4
4 4 4 2 3 3 1 0 1 1 2 5 1 1 1 6 11 3 4 6 5 5 3 3 6 11 16 18 18 18 17 16 14 11 9 9 8 7 4 4 2 1 2 3 6 7 7 7 3
3 4 3 5 5 3 1 1 0 2 2 4 3 4 4 9 4 2 4 6 5 5 3 2 6 8 11 15 17 18 18 16 14 12 10 10 9 8 8 7 6 3 3 4 6 7 9 8 4
4 3 6 4 4 3 1 1 1 1 4 1 3 6 12 15 16 17 16 15 15 13 8 6 6 8 12 12 13 15 17 16 15 14 12 11 10 9 8 9 10 7 4 5 8 11 11 11 7
2 4 4 2 3 4 3 2 1 3 0 2 2 2 10 14 17 16 13 13 14 12 10 9 7 8 11 11 13 12 12 13 13 13 13 12 13 11 11 10 10 9 7 6 6 9 12 11 9
2 1 3 1 2 3 2 3 3 4 2 5 7 6 6 12 12 13 15 17 18 15 13 10 7 5 9 13 10 10 9 8 9 12 11 12 14 13 13 11 11 10 8 7 6 6 10 10 9
2 1 2 2 5 4 2 4 5 3 7 10 11 13 10 11 11 11 12 13 16 18 17 15 11 8 5 11 16 10 8 6 5 6 9 10 11 12 12 11 11 10 10 10 8 7 7 8 8
2 2 5 5 3 3 4 3 4 2 7 9 10 8 7 9 9 10 16 16 15 15 16 15 11 8 3 5 13 12 8 5 4 4 3 5 8 10 12 12 13 10 12 11 10 9 9 6 5
2 3 6 3 0 3 6 2 6 6 6 8 6 5 6 8 12 12 11 11 13 14 15 16 14 12 12 13 14 13 12 10 10 10 7 6 4 3 6 8 9 9 11 11 10 10 8 8 7
2 4 3 2 1 1 3 5 2 8 9 6 4 5 7 9 9 11 11 11 11 11 14 16 16 18 20 21 21 20 19 19 17 17 17 13 12 8 5 4 2 4 5 7 9 8 7 8 9
6 3 4 7 2 1 2 5 3 4 5 5 4 4 5 5 10 11 10 9 9 11 13 18 20 23 22 24 27 28 27 25 24 21 19 17 16 15 14 14 15 13 11 9 6 5 7 8 8
6 4 5 5 1 2 1 9 5 5 6 6 5 4 4 5 7 10 12 11 12 11 14 18 21 23 27 27 30 31 30 29 26 25 24 21 20 17 16 16 16 15 13 12 10 9 7 7 9
5 4 6 2 2 3 6 6 13 7 5 7 7 7 5 5 5 12 15 14 15 16 16 16 18 21 24 26 26 28 30 29 28 25 24 23 21 20 19 19 16 16 15 14 12 9 10 11 15
4 4 6 5 3 3 6 9 12 3 3 4 9 8 8 5 5 10 14 17 19 19 20 19 18 19 22 24 27 28 29 30 27 25 24 22 21 20 20 20 20 18 16 17 18 16 10 10 16
5 7 4 6 3 2 3 7 6 1 2 4 4 4 4 6 6 6 11 16 17 20 21 20 20 22 25 26 27 29 30 28 29 30 30 29 27 26 25 24 23 23 22 23 22 21 20 15 15
5 8 6 4 3 4 1 5 6 0 2 3 5 5 6 6 4 6 7 11 14 17 20 22 22 18 16 16 19 24 30 30 27 30 29 30 29 29 28 27 27 27 27 27 26 23 22 19 18
6 6 7 4 4 2 3 1 7 1 5 4 6 6 7 8 7 7 7 9 11 13 20 23 24 26 25 25 26 30 34 31 27 27 26 27 26 25 25 24 24 25 25 24 23 24 24 23 20
9 6 6 4 3 1 8 7 4 4 5 4 6 8 6 4 4 5 6 7 11 13 17 21 24 24 23 24 25 27 29 27 25 23 24 23 23 23 23 22 22 23 22 21 21 20 20 19 18
1 6 0 1 0 5 1 5 7 6 5 4 11 11 9 8 7 8 11 10 9 11 15 19 22 24 22 23 24 24 24 23 22 21 21 20 19 20 19 18 18 19 18 18 18 18 18 17 16
7 6 5 7 4 3 2 6 6 3 2 1 4 11 10 9 7 8 13 14 15 13 13 15 18 21 20 20 22 20 20 21 20 19 18 18 17 17 15 15 15 16 16 16 17 17 17 16 17
5 5 2 5 3 2 4 4 4 1 1 3 6 10 12 11 10 9 16 17 16 14 13 14 15 17 17 18 19 18 17 17 18 16 15 14 13 13 12 12 14 16 17 19 20 20 20 19 19
4 6 3 2 1 4 4 4 4 6 7 5 7 11 12 9 9 9 17 21 19 17 15 15 15 16 17 16 16 16 15 14 13 12 11 10 9 8 9 11 13 14 15 16 17 18 18 20 22
4 3 3 3 4 5 2 4 5 8 8 12 12 13 14 14 13 11 18 22 20 19 18 18 17 18 17 16 15 14 13 11 9 7 7 6 6 6 8 10 12 14 16 17 19 19 19 22 24
3 8 7 5 6 3 3 5 0 3 6 8 9 11 11 12 13 14 18 22 22 22 22 22 21 20 18 17 15 13 11 9 7 6 4 3 4 5 7 10 12 14 16 18 18 17 20 21 21

GFSSGP_925_spd_030.txt.gz
Wind_Speed
6 4 1 2 3 2 4 4 2 2 1 2 2 3 9 6 5 4 1 7 2 10 16 18 17 15 14 12 12 10 9 8 8 8 9 9 8 6 6 8 8 10 12 12 13 11 10 10 9
3 1 0 0 2 6 5 2 3 3 3 0 1 1 3 6 3 4 2 4 3 9 17 17 19 17 15 13 12 10 8 7 7 7 7 7 7 7 8 6 6 9 10 10 10 9 9 8 8
1 1 2 1 1 5 5 4 3 3 1 1 2 1 2 3 5 3 4 6 2 9 14 14 18 16 14 13 11 9 8 7 6 5 5 5 6 6 5 4 7 7 7 9 8 7 7 7 7
2 2 3 0 8 3 3 4 3 4 3 1 0 5 4 6 3 4 5 5 3 7 11 14 17 15 14 11 9 8 8 7 5 5 4 5 6 6 5 6 6 5 6 8 5 6 6 7 7
2 1 2 4 4 3 1 1 1 3 2 3 1 3 4 6 6 7 6 5 3 4 7 12 17 15 14 13 10 9 9 8 5 4 3 4 5 4 5 6 5 2 4 9 10 7 6 7 6
1 1 3 6 5 3 2 1 2 2 2 3 1 3 4 7 7 7 7 7 6 4 5 7 14 15 14 13 13 11 10 9 6 4 4 5 5 3 4 4 3 1 2 5 8 8 6 6 6
2 1 3 5 8 6 4 1 2 3 3 4 1 3 6 9 10 6 7 8 8 7 4 1 5 13 16 15 14 13 12 10 8 7 6 6 6 3 4 2 3 1 2 4 8 9 9 7 5
2 2 5 3 8 5 4 3 1 1 3 1 2 4 4 7 10 2 5 7 7 5 4 4 4 7 13 12 14 14 14 14 11 10 8 7 7 6 4 2 2 0 2 4 7 9 11 9 5
1 3 5 7 7 5 3 5 2 1 3 2 3 4 5 9 6 4 2 5 5 5 3 1 5 9 13 13 13 15 16 14 13 11 10 8 8 7 6 5 5 4 3 5 8 10 12 10 6
1 2 4 3 4 6 5 2 1 3 1 4 4 7 6 7 8 8 8 8 9 9 7 5 3 6 11 14 15 15 17 14 12 12 11 9 7 6 5 4 6 5 4 3 8 9 12 11 8
1 0 4 4 3 2 3 2 2 2 3 2 2 5 5 7 8 8 7 7 8 8 7 8 6 6 7 8 8 10 12 13 10 10 9 10 11 9 8 8 7 7 6 6 5 4 6 10 9
2 2 2 4 4 4 3 2 3 6 1 5 6 6 4 6 7 7 7 8 9 9 9 8 6 4 5 8 7 10 8 8 8 5 6 3 7 8 9 11 10 8 7 7 7 6 6 7 8
2 3 3 3 4 4 2 7 4 6 7 8 9 7 6 5 5 6 7 7 9 9 10 9 7 4 3 6 8 10 8 7 5 4 2 7 6 7 10 10 10 8 7 7 7 7 6 6 6
2 2 4 5 4 5 6 4 5 4 10 8 5 6 6 7 7 5 8 9 11 12 14 13 9 4 2 11 15 13 11 10 9 6 3 2 5 5 4 5 7 7 7 8 8 7 6 6 6
1 4 6 6 4 4 7 5 9 7 11 9 6 5 4 5 6 8 8 8 11 11 13 14 13 12 9 13 19 20 18 13 12 11 10 7 4 4 3 1 3 4 5 6 6 6 5 5 5
2 2 4 3 4 2 7 4 6 13 12 9 7 5 4 5 5 6 7 7 8 8 11 11 14 14 15 18 21 22 21 20 19 16 15 14 12 9 6 5 5 3 1 2 2 4 3 4 6
2 6 7 3 1 2 7 1 7 11 9 7 7 4 3 4 7 9 9 8 7 7 9 12 15 18 21 24 26 26 25 24 20 20 19 18 17 16 14 15 14 11 10 11 8 6 5 5 5
6 5 5 6 2 3 6 12 5 10 10 9 5 3 3 4 6 7 7 7 7 8 11 14 17 21 25 29 30 27 26 23 21 22 22 19 18 17 16 16 15 13 11 12 10 10 10 9 11
1 4 11 2 1 4 10 12 10 12 10 10 8 7 7 4 4 5 5 5 6 8 11 14 16 18 18 20 21 21 20 19 19 20 19 18 17 16 15 15 13 13 14 14 13 7 8 10 13
5 9 14 6 3 4 9 14 16 10 11 11 10 9 8 7 5 5 7 9 9 11 11 11 11 11 10 11 15 13 17 18 18 19 20 19 18 17 17 17 16 15 14 16 15 14 9 11 15
11 14 12 9 1 5 5 15 18 7 4 5 8 10 10 11 10 8 8 8 8 11 14 17 16 16 16 17 19 20 19 19 18 18 22 23 23 24 23 22 21 21 19 19 18 17 15 12 11
14 12 10 8 4 8 2 7 6 7 8 8 11 12 12 12 9 9 8 8 9 8 11 14 16 19 17 15 13 14 15 16 15 17 19 21 22 23 22 22 22 21 20 20 19 18 17 15 15
6 5 9 6 9 5 9 6 7 4 10 12 13 14 14 12 11 9 9 8 8 10 12 13 15 15 15 18 20 20 22 18 15 15 18 20 21 21 21 21 20 20 19 19 19 18 17 15 13
12 6 5 3 1 8 15 13 7 7 7 7 13 13 14 14 12 12 10 10 9 11 15 16 18 18 19 20 19 18 20 18 16 13 15 14 16 18 18 18 18 18 18 17 16 15 15 13 11
6 10 4 4 5 7 1 9 9 7 2 2 14 15 15 13 12 12 13 12 11 11 12 13 15 16 16 17 19 17 18 16 16 13 13 12 12 13 15 15 15 15 15 14 13 13 13 12 11
16 12 5 7 6 2 2 7 5 2 4 4 5 15 15 15 13 13 16 14 13 12 12 14 15 16 15 17 19 18 18 14 15 12 12 12 12 13 12 13 12 12 11 12 11 11 11 10 11
7 10 1 3 1 2 6 5 6 4 6 5 9 14 17 17 16 14 16 16 16 15 15 15 16 16 15 17 17 17 16 15 16 14 12 12 12 10 9 9 9 10 11 12 12 12 12 11 11
5 11 4 4 5 6 5 6 8 8 13 9 11 15 16 16 16 15 20 20 19 17 16 15 15 16 17 17 16 16 15 15 15 13 11 10 9 8 7 7 7 8 9 9 10 10 10 11 12
6 7 4 3 4 4 4 5 5 12 13 14 13 15 17 19 18 15 20 20 19 18 18 17 17 17 18 18 17 18 16 15 13 12 10 8 6 4 2 3 4 6 7 9 10 10 10 12 12
11 12 12 7 6 4 2 6 2 2 6 9 10 13 15 17 17 18 21 21 21 21 19 20 19 19 19 18 19 18 17 16 13 11 10 8 6 3 1 2 4 6 8 10 10 9 11 11 12

GFSSGP_925_spd_033.txt.gz
Wind_Speed
9 8 6 6 4 2 5 5 2 4 6 7 5 8 12 14 10 5 4 6 5 9 13 15 15 12 12 12 11 9 8 8 9 9 9 8 7 7 8 8 9 11 13 12 12 11 10 10 9
5 6 4 3 4 6 6 5 6 7 7 3 3 3 5 12 11 8 5 3 4 8 12 13 16 12 12 11 10 8 8 7 7 7 7 6 7 8 8 7 9 10 11 11 8 8 9 9 7
5 5 4 3 3 5 6 4 7 7 4 1 3 4 3 6 10 6 6 3 4 9 11 12 16 14 13 11 11 10 8 7 6 6 6 5 6 6 5 6 7 7 9 11 11 7 8 8 8
3 5 4 6 3 4 6 6 7 7 4 1 2 8 7 10 5 6 6 5 5 6 9 10 14 13 12 12 10 9 8 8 6 5 5 6 6 6 5 6 6 7 9 13 14 9 9 9 9
4 3 3 2 4 4 3 5 3 4 4 5 1 5 6 8 9 8 7 6 5 5 6 6 13 12 11 9 7 6 7 7 6 5 5 5 6 6 7 7 5 5 8 12 15 12 10 9 9
4 3 4 6 6 6 4 4 3 2 3 5 1 4 7 7 6 7 7 8 7 6 5 6 11 13 11 10 9 8 6 6 4 3 3 4 5 5 6 5 4 4 6 10 13 14 13 12 10
5 5 4 2 8 7 6 4 5 4 5 4 2 1 8 9 5 4 6 7 7 7 6 4 5 9 14 12 12 11 9 8 5 4 3 2 4 3 4 4 3 4 6 9 13 15 15 13 10
3 4 4 6 8 8 7 6 1 3 6 3 3 2 8 6 4 3 5 6 7 7 6 4 1 4 8 11 14 14 13 10 9 7 6 4 6 5 4 3 3 4 5 8 12 15 16 14 10
3 4 6 5 7 5 7 7 4 1 3 2 3 5 5 4 2 3 3 4 4 5 5 3 1 1 3 6 8 11 13 11 10 8 8 7 6 6 6 5 2 2 2 4 8 12 16 14 12
4 4 2 3 2 4 8 6 5 5 6 5 5 6 5 5 5 4 2 2 5 6 6 6 5 4 5 7 7 10 9 9 9 10 10 10 8 6 7 4 1 2 2 3 4 6 10 10 9
0 5 2 4 3 1 5 4 3 6 7 2 6 7 5 5 7 6 5 6 7 8 7 8 7 6 5 5 7 8 11 11 8 8 7 7 8 8 8 4 4 4 2 3 2 3 4 6 7
5 1 1 2 3 2 4 1 5 7 3 7 6 7 5 5 6 6 5 6 8 8 9 9 9 7 5 4 5 7 8 7 4 1 1 0 5 5 4 5 6 5 5 4 3 4 4 3 5
5 3 2 3 3 4 2 8 8 7 7 7 7 6 6 5 5 5 5 6 7 7 8 9 7 5 3 1 4 5 5 5 7 8 5 2 2 2 0 2 5 5 3 1 3 4 4 3 3
2 3 4 5 8 7 7 10 3 7 12 8 7 6 4 5 5 4 7 7 8 8 9 8 7 6 3 9 13 14 13 10 6 6 6 5 3 1 1 2 5 5 4 3 4 5 3 4 3
2 6 8 11 9 5 7 10 14 7 10 10 9 6 5 5 5 6 5 6 7 8 9 9 9 7 9 11 15 17 14 13 12 9 6 6 5 7 6 4 3 1 2 3 3 4 3 3 4
4 4 7 7 8 3 7 10 7 10 12 12 10 7 5 4 4 4 5 5 6 6 8 9 9 11 13 17 20 20 19 18 16 14 12 10 10 8 7 8 8 6 3 3 2 2 1 3 4
8 10 9 5 7 5 11 5 6 10 12 12 10 9 7 6 4 3 3 3 4 5 7 9 11 16 19 21 23 24 23 21 20 18 17 16 17 15 15 15 15 14 13 12 10 10 8 9 9
9 11 9 10 5 7 10 14 7 11 13 12 11 9 8 7 4 3 4 4 5 6 8 11 14 19 24 26 26 26 23 21 19 18 16 16 16 15 14 14 13 11 12 12 9 9 8 10 11
8 9 13 9 3 4 13 15 14 13 14 15 15 12 10 9 7 5 4 6 7 8 9 11 14 18 20 22 20 21 20 16 17 17 15 14 15 14 13 13 13 14 16 14 14 9 11 15 21
12 13 16 14 3 4 12 17 16 16 17 19 17 14 12 10 9 8 7 7 8 8 8 8 12 14 11 13 15 13 15 16 16 17 19 18 17 17 17 16 16 15 15 17 18 16 11 13 19
14 15 15 14 2 11 13 20 24 24 21 17 10 12 12 12 11 9 9 9 10 10 10 8 9 9 9 13 18 21 19 18 16 16 18 19 20 20 20 19 18 18 18 19 19 18 17 13 14
15 13 13 12 7 10 4 9 9 7 13 13 12 12 13 12 10 11 10 10 11 10 9 9 9 11 11 11 13 15 15 18 16 16 17 18 18 19 19 19 18 19 18 18 17 15 16 14 15
8 2 6 9 11 13 16 8 11 16 17 16 14 14 14 13 12 12 12 10 9 10 11 10 10 10 10 10 13 17 19 18 16 17 17 17 17 17 18 17 17 17 17 16 15 15 15 14 12
9 5 3 3 6 9 17 16 9 10 8 12 14 15 16 15 14 14 13 12 11 9 10 11 12 12 13 13 13 16 19 18 18 16 14 12 12 14 16 16 16 15 14 13 13 12 12 11 10
12 8 4 5 6 8 2 12 15 6 7 6 16 18 18 16 15 14 15 14 13 11 11 11 12 13 13 14 14 15 15 15 15 14 13 12 11 12 12 12 12 12 12 11 10 9 9 9 8
20 16 6 6 6 4 2 8 6 3 8 5 11 16 16 16 14 14 17 16 14 13 12 13 13 14 13 13 13 14 15 13 12 11 12 11 11 11 11 11 10 10 9 10 8 9 9 9 8
7 12 10 4 2 4 7 10 8 7 8 9 11 16 18 17 16 16 18 17 16 15 13 14 14 15 15 14 14 14 12 12 13 13 13 12 12 11 9 9 8 7 9 9 9 9 9 9 9
9 9 5 6 5 8 10 14 10 9 15 15 15 17 17 17 17 16 20 21 20 19 17 15 14 14 15 14 13 13 13 13 13 13 12 11 12 10 8 7 6 6 7 8 8 8 9 9 10
8 9 9 5 8 5 6 9 9 15 16 19 17 17 19 19 17 16 20 22 22 21 21 19 18 16 16 15 13 15 15 14 13 13 13 12 11 9 7 5 3 3 3 5 7 8 8 9 10
16 14 20 7 6 5 6 14 3 5 12 15 17 16 17 18 16 15 21 23 23 22 21 21 19 18 17 16 15 16 16 16 14 14 13 12 10 9 6 4 2 0 3 5 7 7 8 10 10

GFSSGP_925_spd_036.txt.gz
Wind_Speed
7 10 9 6 2 3 5 3 6 5 7 6 3 8 10 12 6 6 10 10 8 14 14 15 13 12 13 13 13 12 10 11 11 10 10 9 9 10 11 12 14 14 16 16 13 13 13 12 11
7 8 4 4 2 5 4 6 9 8 7 6 2 3 11 9 7 9 8 8 7 13 11 13 12 10 11 11 11 10 10 10 10 9 9 9 10 10 10 11 14 14 15 14 14 11 11 11 10
7 5 2 2 2 5 5 6 9 7 3 0 4 6 6 5 11 6 7 8 9 12 11 11 12 8 8 8 9 8 8 8 8 8 8 9 9 8 9 10 10 12 14 15 14 10 10 11 11
6 4 3 1 8 7 9 8 10 8 6 3 4 9 7 12 6 7 8 8 12 11 10 11 12 10 8 6 6 6 6 6 6 6 7 7 8 7 9 8 9 11 13 16 16 13 12 11 11
3 3 3 0 7 4 8 8 1 5 4 6 2 6 6 8 12 11 10 10 11 10 7 7 12 12 10 8 6 5 5 5 5 5 6 6 7 8 9 7 8 10 13 16 17 16 14 13 12
3 2 3 4 6 4 6 5 4 4 6 4 1 7 4 8 10 9 11 11 11 9 7 3 12 13 11 8 6 5 3 4 3 3 4 5 6 7 7 7 7 8 12 15 18 18 16 14 13
2 2 6 6 8 5 6 4 3 5 5 6 4 5 6 9 5 9 10 9 11 12 10 6 3 9 10 9 9 7 5 3 3 3 3 3 6 6 6 7 7 9 11 14 15 17 18 15 13
3 2 4 3 6 4 7 5 5 5 5 4 5 2 6 5 7 9 10 10 10 9 8 7 6 6 7 9 9 11 10 8 6 5 4 3 6 6 6 5 5 6 7 8 11 16 18 16 14
2 2 3 1 1 5 7 5 1 1 4 5 5 4 6 6 8 10 9 10 8 8 6 3 4 4 4 9 10 12 11 10 8 7 6 5 6 7 8 6 4 4 5 6 8 13 15 16 14
1 2 6 7 7 4 7 5 9 3 6 5 6 9 9 9 8 9 8 12 9 7 6 3 1 2 5 4 6 6 6 8 8 8 6 7 5 8 9 6 3 4 4 5 6 9 9 10 12
1 2 4 6 8 9 6 1 2 3 4 4 8 10 8 12 10 11 12 9 7 5 5 5 3 1 3 7 5 5 9 8 5 4 3 4 4 9 8 4 3 3 3 3 4 5 6 7 8
4 2 5 4 3 3 3 2 1 6 4 8 10 13 10 10 10 8 7 7 7 7 6 5 3 2 1 9 8 7 5 4 5 5 6 8 6 4 3 3 4 2 2 3 3 5 5 6 6
4 3 2 5 2 2 4 3 5 3 9 10 9 10 9 9 10 8 7 7 6 6 4 3 2 4 3 9 10 11 10 10 11 8 6 7 10 8 7 8 3 2 4 3 1 4 3 3 5
5 4 4 6 5 3 2 4 3 5 12 10 8 9 8 9 7 10 7 7 5 4 2 3 6 6 9 12 16 17 15 12 9 11 10 10 10 9 7 7 5 4 2 3 1 5 4 5 5
2 4 7 8 6 1 3 7 10 7 9 10 8 9 8 8 9 8 6 5 5 3 5 6 7 8 13 16 17 14 16 15 12 9 7 9 10 10 7 6 7 6 5 3 2 2 2 3 5
3 3 3 4 10 4 4 7 8 12 10 9 9 9 8 6 9 8 6 5 6 4 7 7 8 9 13 15 17 20 19 17 14 14 13 12 10 9 11 11 12 10 9 9 8 7 7 8 8
5 5 7 4 8 6 7 5 4 6 8 8 9 9 8 7 8 7 5 5 6 6 8 9 10 13 17 18 21 22 21 20 19 19 16 17 18 18 19 18 17 15 14 14 14 13 10 9 8
5 5 6 5 7 5 7 11 6 9 9 10 10 9 9 8 7 8 6 6 7 9 10 11 13 16 20 21 23 23 22 22 22 21 20 18 18 17 17 16 14 12 12 13 13 12 9 12 9
9 6 8 6 4 4 9 9 11 12 9 10 10 10 10 8 11 9 8 8 9 9 10 13 17 20 23 21 21 21 20 21 20 18 17 17 16 15 16 16 16 16 18 17 14 15 14 22 15
9 7 9 7 8 2 7 12 10 7 14 16 14 11 11 10 8 10 10 11 12 12 12 14 18 19 17 11 15 14 20 20 21 20 19 17 17 18 18 19 20 21 21 22 20 16 16 22 24
6 7 7 7 4 4 5 8 13 12 16 15 11 7 12 15 12 9 12 12 14 14 14 15 16 14 12 14 16 21 22 22 21 22 23 22 22 22 22 21 21 21 20 22 21 19 20 17 19
7 4 11 5 3 4 7 6 8 8 12 16 11 9 11 13 11 12 15 15 15 15 14 16 16 15 14 15 20 21 22 21 19 23 23 23 22 22 21 20 20 20 20 20 19 18 18 17 17
4 6 3 2 5 4 4 6 7 15 16 12 11 11 10 11 12 12 17 18 17 17 17 16 18 18 17 15 17 21 23 23 23 22 22 21 21 20 20 19 18 18 18 17 16 16 16 16 16
9 5 2 1 1 5 13 12 6 12 15 7 10 11 11 12 11 15 19 19 17 18 18 18 19 18 18 19 19 21 25 25 24 21 21 20 18 18 18 17 16 16 15 15 14 13 13 13 12
4 6 2 2 1 7 2 9 15 5 2 3 15 14 11 12 11 11 15 20 20 21 21 21 22 22 22 21 22 24 23 22 22 19 20 20 17 16 15 14 15 15 14 12 11 11 11 11 10
10 8 5 6 4 4 4 7 6 3 6 4 11 13 12 13 11 12 17 21 24 25 25 25 25 25 23 22 23 22 21 21 19 18 18 17 16 15 14 13 13 12 12 10 10 10 9 9 8
5 7 9 3 2 1 6 7 6 5 4 2 10 13 14 14 13 14 19 22 25 27 27 27 27 25 24 24 24 24 22 22 20 19 16 16 15 15 14 12 12 10 11 10 9 9 9 8 7
4 6 3 1 2 6 6 11 8 6 11 9 12 17 16 15 13 13 19 22 25 28 27 26 25 26 25 24 24 23 21 20 20 19 18 17 16 14 13 11 10 9 8 8 7 7 7 6 7
4 4 5 4 4 4 4 7 3 15 16 19 15 16 17 17 16 14 18 21 26 26 27 26 26 26 25 24 23 22 21 22 21 20 18 17 16 14 12 11 9 8 6 4 3 4 5 6 8
3 8 10 5 6 7 2 19 2 4 12 15 16 15 15 16 15 14 20 23 26 28 30 30 27 27 27 25 24 24 23 23 21 20 19 18 17 15 13 11 9 7 4 2 1 2 5 7 9

GFSSGP_925_spd_042.txt.gz
Wind_Speed
8 5 3 4 5 5 2 1 1 1 4 3 3 10 9 4 2 3 2 5 18 19 17 13 13 14 14 14 14 14 14 14 13 15 14 15 16 17 17 17 18 18 15 16 16 15 13 13 14
7 4 3 3 5 4 3 3 4 3 6 7 8 4 7 4 2 4 5 14 18 19 18 17 15 14 14 14 13 13 13 13 13 14 14 13 14 14 14 17 18 18 17 16 16 15 14 14 13
4 4 4 4 4 4 5 4 6 6 8 4 4 6 4 1 2 3 8 17 17 18 18 17 16 15 14 13 13 13 12 12 12 13 12 12 12 12 13 16 17 20 19 18 17 17 17 16 15
3 6 4 5 3 1 7 6 5 5 2 6 5 7 3 3 1 5 7 19 16 17 17 16 15 14 13 12 12 12 11 11 11 11 12 11 11 12 13 15 18 21 22 22 20 18 18 17 17
5 3 5 4 3 3 1 4 7 4 2 4 2 4 4 4 10 10 19 23 17 16 15 15 14 13 12 11 10 10 10 10 10 10 11 11 11 11 12 15 18 21 21 21 21 19 19 18 17
4 3 5 2 2 2 3 6 7 3 2 4 6 5 3 5 15 17 17 19 18 16 15 14 14 13 11 10 9 9 9 9 9 9 10 11 12 10 12 14 15 17 19 21 20 20 18 17 15
6 4 4 4 4 3 4 5 7 6 5 2 9 5 2 5 15 17 18 19 20 19 16 16 16 15 13 12 11 10 10 9 9 10 11 11 12 12 12 13 13 15 16 18 18 19 19 17 15
5 4 3 3 6 4 3 3 6 5 3 4 3 6 5 8 17 16 16 17 18 17 16 16 17 14 13 13 13 13 13 12 11 10 11 11 12 11 12 11 12 13 13 16 16 16 17 18 17
3 4 1 0 6 4 2 4 0 3 6 4 4 4 4 25 20 18 17 15 15 16 16 16 17 16 15 15 13 12 12 12 11 10 10 11 12 12 13 11 11 10 11 11 12 10 13 15 15
5 4 4 2 3 5 6 5 7 4 4 3 3 4 18 23 22 20 17 14 13 13 14 16 18 17 17 16 15 16 15 13 12 13 12 11 12 14 13 12 9 8 8 9 8 8 9 11 12
3 4 3 2 1 3 5 2 3 8 3 7 9 10 11 14 18 18 15 14 14 12 11 12 14 16 18 18 16 13 14 16 16 15 14 14 15 17 16 13 10 6 5 5 7 8 10 9 10
3 1 3 3 1 3 6 2 3 5 5 2 9 13 9 11 16 21 17 15 14 12 10 9 10 12 14 15 19 17 15 15 14 18 15 17 17 20 18 13 11 7 5 6 6 6 7 9 10
2 1 1 3 4 2 1 3 4 4 1 5 15 11 9 11 16 15 15 13 13 12 10 9 10 12 14 15 17 15 16 14 15 16 16 14 18 20 17 15 11 9 6 6 6 7 7 8 10
4 0 3 4 3 3 4 2 2 2 6 8 9 9 8 12 16 13 14 14 13 11 9 8 8 12 14 17 17 16 16 15 15 15 14 16 19 20 18 13 11 8 9 6 6 5 7 9 10
1 3 4 5 4 4 4 5 9 5 8 10 9 8 8 12 16 19 18 16 14 11 9 8 9 12 15 18 19 17 16 15 13 14 17 17 16 15 14 12 11 11 9 8 6 8 9 9 7
2 3 2 3 7 3 5 7 4 8 12 11 10 8 8 8 18 17 16 15 14 12 11 11 12 14 18 20 20 18 18 17 16 14 14 14 15 14 15 15 13 11 11 9 9 10 8 10 13
4 3 4 7 6 3 5 6 3 6 9 10 9 9 9 8 13 18 17 17 16 14 14 15 17 17 21 21 20 21 19 19 17 14 14 15 17 17 18 18 17 15 15 14 10 12 11 14 17
6 4 5 5 4 2 3 11 6 6 8 12 10 10 10 11 15 23 20 18 17 16 16 17 20 21 23 24 23 22 22 21 20 19 16 19 20 20 20 20 19 16 16 15 14 16 18 19 24
4 4 4 3 4 5 8 9 11 9 7 10 10 12 14 15 11 22 20 20 19 19 20 21 24 26 27 28 28 26 26 24 23 21 21 21 20 19 19 19 18 16 16 18 17 21 22 25 25
4 4 7 6 4 6 7 11 10 6 8 12 17 14 17 9 9 20 24 24 24 24 23 24 27 29 29 29 29 29 28 23 23 22 22 22 20 18 19 20 21 20 20 18 17 18 24 18 9
6 7 5 8 1 3 3 7 10 10 7 9 11 16 14 20 19 16 24 32 29 29 28 28 29 31 31 31 29 29 24 25 22 22 23 21 20 21 22 23 23 22 20 19 17 15 16 18 19
7 7 6 4 2 5 3 8 5 6 11 9 16 13 17 15 15 16 22 26 34 33 30 29 31 30 30 29 30 33 31 28 24 26 24 24 24 25 25 24 23 21 20 20 19 17 17 16 16
7 4 4 2 3 2 3 4 6 4 8 15 20 12 14 15 21 21 27 32 35 34 34 31 31 30 29 30 30 31 31 25 29 28 28 28 27 25 24 23 22 21 20 19 18 18 18 16 17
6 5 6 4 3 4 9 8 5 7 12 8 9 7 13 15 18 18 24 26 32 34 34 33 34 30 30 30 30 31 32 34 34 33 32 31 29 27 24 23 21 20 20 18 17 16 16 16 16
4 7 2 3 1 8 2 5 14 9 10 11 13 8 10 10 14 15 16 25 30 37 37 37 36 33 32 30 30 31 33 36 38 38 37 34 32 28 26 23 22 20 19 18 16 15 15 14 15
8 8 6 7 5 5 1 7 6 13 12 6 9 8 7 9 11 14 18 24 27 32 37 37 37 35 32 31 32 32 35 38 39 39 38 36 33 30 27 24 21 20 19 18 16 15 15 13 13
6 8 4 1 1 1 6 8 7 10 10 10 11 4 6 8 12 15 17 23 27 32 38 40 38 36 34 34 34 34 36 39 41 38 36 33 31 29 27 24 22 20 19 17 15 14 13 11 10
6 8 2 2 2 6 6 6 8 5 12 14 12 9 9 8 8 10 15 22 26 31 36 38 36 37 37 37 37 36 37 39 39 37 35 33 31 29 28 25 22 21 19 18 15 14 12 10 9
3 5 4 5 5 5 2 7 7 13 12 12 13 10 10 12 13 12 14 20 25 31 36 39 38 38 37 38 38 38 40 39 37 36 34 33 31 30 28 25 23 22 21 18 16 13 12 9 8
1 4 7 5 6 6 3 18 5 5 6 8 10 8 8 10 13 12 15 20 25 30 34 37 38 39 39 39 39 39 41 39 38 37 35 34 32 30 28 26 24 23 21 19 16 14 12 10 8

GFSSGP_925_spd_045.txt.gz
Wind_Speed
6 4 2 5 5 6 1 1 2 1 3 4 3 4 7 4 2 3 1 11 8 18 16 14 14 15 16 15 15 14 14 14 16 16 16 18 17 18 20 20 21 19 18 18 18 17 16 16 17
6 2 4 3 5 4 4 3 4 3 6 7 6 3 6 2 0 2 3 7 19 19 17 16 14 14 13 14 14 14 14 14 16 15 16 16 15 16 18 20 20 18 18 18 18 17 17 17 18
2 3 4 4 4 4 5 3 4 4 7 2 4 5 3 2 0 4 4 16 19 18 16 15 15 15 14 14 13 13 13 14 15 15 14 13 15 14 17 19 20 20 19 18 18 17 17 17 17
0 6 5 5 3 3 5 6 4 6 3 3 4 6 2 3 1 4 10 17 17 17 16 15 15 14 14 13 12 12 12 12 13 12 13 11 12 13 16 17 18 18 19 19 18 17 17 16 17
5 3 5 4 3 1 2 4 8 6 3 2 1 5 1 3 1 6 16 18 15 17 16 15 14 14 13 12 11 10 10 10 10 11 12 11 10 12 15 15 16 18 19 19 18 18 18 16 16
4 3 5 2 1 2 0 4 6 3 1 4 5 4 3 3 8 12 20 19 15 15 16 15 14 13 12 12 11 11 10 10 10 9 10 11 11 12 13 14 15 17 18 18 18 18 17 16 15
6 4 4 6 4 1 4 6 6 6 5 1 9 5 2 3 12 15 20 19 17 18 17 16 15 14 13 12 11 11 10 9 9 10 10 11 10 11 11 12 14 16 18 18 19 19 18 17 16
5 4 4 3 6 5 4 3 6 6 2 4 2 5 5 8 16 17 18 19 18 19 17 17 16 16 15 14 13 12 12 11 10 10 10 11 11 10 11 11 12 13 15 16 17 17 17 17 17
3 5 3 6 7 4 4 4 2 2 6 2 2 5 4 26 21 19 18 17 19 18 18 18 18 17 14 13 13 12 12 12 12 11 12 12 12 12 11 11 10 10 11 12 13 14 15 15 15
5 4 8 5 4 4 4 3 8 4 4 1 1 2 14 26 24 22 20 19 18 17 17 17 20 19 18 16 14 13 13 13 13 13 13 12 13 13 13 11 9 9 7 9 10 12 12 13 14
2 4 4 3 3 3 4 2 3 7 4 7 9 9 11 17 21 21 20 21 21 18 18 18 19 20 20 17 16 16 15 14 14 14 13 13 14 15 15 13 10 7 5 7 8 9 10 12 13
4 1 3 1 1 3 4 4 4 6 6 1 8 14 12 11 17 22 22 20 18 17 16 17 18 20 20 20 18 18 18 18 16 16 15 15 18 17 18 15 11 7 5 7 8 9 10 12 13
2 1 0 1 1 1 1 3 5 7 2 2 9 12 10 11 16 21 21 18 17 18 16 15 15 17 18 20 22 19 18 17 17 18 18 17 19 19 20 16 12 9 7 6 7 9 11 14 14
1 1 2 3 2 2 4 3 1 5 4 5 9 10 9 12 19 19 20 21 20 18 17 15 14 15 17 19 21 20 18 17 16 18 19 18 19 21 18 16 14 10 8 6 7 10 12 15 14
1 3 5 4 4 3 4 6 10 3 4 7 9 7 7 11 18 24 26 23 21 19 16 15 14 15 17 20 20 20 19 18 18 19 19 18 20 22 19 17 13 12 10 8 9 12 12 12 13
3 5 3 2 5 1 5 8 7 7 9 10 9 8 8 9 21 23 22 21 20 18 17 15 14 16 19 20 22 20 19 20 19 19 21 20 22 23 19 15 12 11 11 10 11 10 13 16 19
6 3 4 8 7 3 5 6 3 2 7 9 9 9 9 8 15 23 23 22 20 18 17 16 16 17 20 23 24 22 20 20 18 18 20 21 20 19 17 16 15 13 12 12 13 16 18 22 25
6 4 4 5 3 3 3 12 10 3 8 13 8 10 10 11 18 28 26 23 20 19 17 17 18 20 23 25 25 23 22 21 19 17 16 17 19 20 20 20 18 16 16 15 15 19 22 25 26
5 4 5 4 3 4 7 10 13 7 6 10 10 11 14 17 17 26 27 25 23 22 21 21 23 24 27 28 27 25 24 20 20 19 16 15 19 21 22 23 22 19 16 17 19 24 28 28 27
2 3 6 5 4 5 8 12 11 5 8 13 16 15 17 13 9 20 30 30 30 29 27 26 27 28 28 29 29 26 25 22 22 21 18 19 21 21 22 24 23 20 22 21 23 27 28 25 16
5 6 5 8 3 3 5 8 9 10 7 7 11 19 15 19 18 14 23 34 34 33 32 31 30 31 30 29 28 26 25 24 21 22 22 21 20 21 21 22 23 23 22 22 20 20 22 14 7
6 8 6 5 2 4 2 6 6 6 11 8 16 15 20 15 12 13 23 26 36 39 34 32 32 33 32 31 30 33 31 27 26 27 25 23 21 22 23 24 24 23 21 20 19 17 15 16 18
7 4 6 2 3 3 4 4 4 1 8 13 16 17 14 13 15 18 24 35 38 37 38 35 34 34 34 32 33 34 30 29 29 27 27 25 24 25 26 26 25 23 21 20 19 18 16 12 12
7 5 5 4 2 4 9 9 6 7 9 6 12 13 10 10 10 10 20 24 28 36 37 37 36 36 35 35 34 35 33 30 32 31 30 29 29 28 27 26 25 23 22 21 19 18 16 15 14
4 6 2 4 1 8 4 5 18 9 10 13 14 12 7 3 7 8 11 20 24 35 38 38 38 39 37 36 35 35 33 34 36 36 36 35 33 31 29 28 26 24 22 21 19 18 17 15 14
8 8 6 7 4 5 3 7 6 10 11 9 9 8 4 5 7 12 15 22 25 30 34 37 37 36 39 38 37 34 33 35 37 38 40 39 38 35 31 29 26 25 23 22 19 18 17 15 13
5 6 4 1 2 2 6 10 8 11 13 9 14 7 7 8 8 9 10 20 24 31 38 41 39 37 40 39 36 35 34 36 39 39 41 41 37 35 33 30 28 26 24 22 20 18 17 15 12
6 7 3 2 2 5 6 7 8 6 9 15 11 11 8 7 7 7 9 17 22 29 34 38 38 41 42 39 38 37 36 37 39 40 42 41 38 37 35 32 29 28 25 23 21 20 17 15 14
4 5 2 4 5 5 3 9 8 14 10 10 12 10 7 9 9 8 10 20 24 28 34 39 40 41 41 40 38 36 37 38 39 42 43 41 40 38 36 34 32 30 27 25 23 20 18 16 14
2 2 9 4 6 5 2 18 3 8 10 8 10 9 4 7 9 8 11 19 23 28 32 35 37 40 41 39 38 38 37 39 40 44 44 42 41 39 37 35 33 30 28 26 24 22 20 18 16

GFSSGP_925_spd_048.txt.gz
Wind_Speed
6 6 3 5 5 5 0 2 1 4 1 1 3 4 5 2 3 3 4 13 12 18 16 14 14 15 17 17 15 16 17 16 17 17 16 16 18 19 20 20 18 17 16 17 18 18 19 21 20
6 3 5 3 5 4 4 3 5 4 6 7 5 2 4 2 0 2 5 11 12 18 17 15 14 15 15 15 15 14 16 16 16 15 14 15 17 18 20 21 19 17 17 18 19 19 20 19 19
2 5 4 4 4 4 4 4 5 3 7 2 4 4 3 2 1 3 2 13 21 18 16 16 15 15 15 14 14 14 16 14 14 14 13 14 16 17 19 19 18 18 18 18 18 18 18 18 18
2 6 4 4 2 3 3 5 4 6 3 2 4 5 2 1 1 4 11 18 20 18 17 16 16 14 14 14 13 13 13 13 12 13 13 14 15 17 19 18 18 18 18 19 19 18 19 17 17
6 3 4 4 2 1 3 4 7 5 2 3 2 4 1 1 3 7 15 17 18 18 17 16 16 15 13 13 12 11 11 12 11 12 13 13 14 16 17 19 20 19 19 19 18 19 19 18 17
4 3 5 2 2 2 2 4 5 3 2 3 4 6 4 3 6 10 17 17 16 17 16 15 14 14 13 12 11 10 9 9 10 10 10 11 13 14 16 18 20 20 21 19 19 18 18 18 18
6 4 4 5 3 1 4 8 4 6 6 5 9 5 3 4 8 12 19 18 16 16 16 15 15 14 13 12 11 10 9 9 9 10 10 10 11 12 15 17 18 19 19 19 19 18 18 19 19
5 5 4 3 5 4 4 6 2 5 3 3 4 4 4 6 13 15 19 17 16 19 18 16 16 15 14 13 11 10 9 8 8 8 9 9 10 11 12 14 15 16 16 17 16 17 18 19 19
3 5 3 7 7 4 4 3 0 1 6 2 2 3 2 18 18 18 19 17 16 18 19 18 16 15 14 12 11 11 10 9 8 8 9 10 10 10 10 11 11 11 12 13 14 15 17 18 19
5 4 8 5 5 3 4 3 7 4 3 3 3 2 4 23 22 21 20 20 19 19 19 19 17 17 16 15 14 11 11 11 12 11 11 11 11 11 10 9 9 9 7 9 11 13 14 15 17
3 4 5 3 2 3 5 2 5 7 4 7 9 6 11 17 21 21 21 23 24 21 19 18 19 19 19 17 16 15 14 14 13 12 12 14 13 13 12 11 9 8 8 8 9 11 14 15 16
4 1 2 1 0 3 4 5 4 6 6 1 8 7 11 11 18 23 25 23 22 22 20 19 19 21 21 20 19 17 18 17 17 15 16 16 17 19 17 15 12 10 9 10 10 11 13 15 17
3 0 1 1 2 1 2 3 6 7 6 3 5 10 11 11 16 23 23 21 21 22 21 20 20 20 21 21 20 20 20 20 20 18 18 19 20 21 20 19 15 13 11 9 11 13 14 16 18
2 1 2 2 2 2 1 1 1 4 3 3 6 11 10 12 21 20 21 23 23 21 20 19 19 19 20 22 24 22 21 21 20 18 20 20 21 23 22 21 18 15 11 10 10 14 13 17 17
3 1 4 2 2 2 4 6 11 4 2 5 7 8 8 12 17 27 28 26 24 22 20 19 17 17 19 20 22 24 23 22 20 20 21 23 20 23 22 22 19 15 13 11 13 16 17 17 18
4 5 2 2 4 2 4 8 10 2 6 10 8 8 9 10 23 28 26 26 24 22 21 19 18 17 18 19 21 23 22 21 22 20 21 21 20 22 25 24 18 16 14 15 17 17 18 21 23
6 2 3 7 6 3 4 6 4 1 5 9 9 9 9 9 15 27 28 26 25 24 22 21 19 18 18 20 21 22 22 21 19 20 20 20 20 24 24 23 19 16 15 18 18 19 23 27 27
5 3 4 4 2 2 4 11 10 7 5 10 9 9 10 10 19 30 30 27 26 25 24 21 20 19 19 20 23 22 23 21 20 19 20 22 24 24 21 18 16 16 18 19 21 25 27 28 29
5 3 4 4 3 3 7 9 11 9 6 11 10 10 14 15 25 25 29 29 27 26 26 26 24 23 24 26 25 25 24 21 20 20 20 21 22 21 19 18 19 19 20 23 26 29 30 30 29
2 3 6 5 3 2 8 14 13 7 8 10 14 14 16 11 9 16 29 32 34 33 31 28 28 27 29 30 30 25 26 22 21 21 19 18 19 21 22 23 23 23 24 26 30 33 34 30 19
5 6 5 6 4 4 5 8 8 7 5 6 11 15 12 17 18 13 21 35 36 38 37 35 33 31 31 32 30 23 26 21 21 21 21 19 20 22 24 25 26 24 24 29 31 31 31 25 12
5 7 5 3 2 4 1 6 7 7 9 9 15 13 19 18 13 9 18 25 36 45 41 38 35 34 34 35 33 33 35 26 23 27 24 21 22 23 25 26 25 25 26 29 29 27 22 23 20
6 4 6 3 3 3 1 2 5 2 8 14 15 15 15 13 11 13 15 28 36 34 41 39 36 35 36 36 35 34 33 32 29 29 26 25 25 24 25 26 27 29 27 27 26 25 21 21 20
8 6 6 4 2 5 11 8 7 6 9 6 11 14 11 7 8 7 17 23 28 32 37 39 37 37 37 37 36 36 35 33 32 32 30 29 27 26 27 28 29 29 29 28 26 24 21 18 17
3 6 2 3 1 9 3 4 16 6 10 9 13 14 7 6 5 7 9 15 23 30 33 37 39 38 38 38 37 37 36 36 36 37 35 32 30 30 31 32 32 31 30 28 27 24 22 20 18
9 8 6 7 4 5 3 8 8 10 9 10 7 12 6 7 7 8 8 15 21 26 31 35 36 36 40 40 39 37 36 37 36 38 38 38 37 36 36 34 33 32 30 28 26 24 23 20 18
6 8 3 1 2 3 5 8 9 8 12 10 13 8 11 8 7 8 9 18 22 26 31 35 35 37 41 42 41 38 37 37 38 38 38 39 40 40 39 37 35 33 30 29 27 25 24 21 19
4 6 3 2 3 5 6 7 8 7 9 12 10 11 9 5 7 7 7 16 22 26 30 34 35 37 41 42 41 41 38 37 37 38 40 40 40 42 41 38 36 34 32 30 28 26 24 22 20
3 4 1 4 5 5 3 9 8 10 12 9 10 8 6 6 8 7 6 14 19 22 26 32 36 38 39 41 40 39 37 37 37 38 40 41 42 44 43 40 38 36 34 32 29 27 26 23 21
1 5 7 4 5 4 2 15 5 8 7 6 10 7 3 4 6 6 7 13 18 23 27 32 33 37 40 41 41 40 38 38 38 38 41 42 45 45 44 42 39 36 34 32 30 29 26 24 22